sat.trackr.live / text

‹ back to catalog

STARLINK-3196

NORAD 49768 · 2021-115AW

PAYLOAD ACTIVE UNKNOWN

§ Identity

Operator
Country
US
Launch date
2021-12-02
Launch site
AFETR
Launch vehicle
Mass (kg)
RCS (m²)

Purposes: comms

External: N2YO · Heavens-Above · Gunter

§ Orbital elements

Epoch: 2026-05-25T00:52:01.363296Z

Period
95.44 min
Inclination
53.2139°
Eccentricity
0.0001170
Mean motion
15.08839907 rev/d
Perigee alt
538.9 km
Apogee alt
540.6 km
Semi-major
6,917.9 km
B*
-2.3973e-5
RAAN
156.3869°
Arg perigee
76.7679°
Mean anomaly
283.3444°
Rev number
24,720

§ Raw data

STARLINK-31961 49768U 21115AW  26145.03612689 -.00000669  00000+0 -23973-4 0  99972 49768  53.2139 156.3869 0001170  76.7679 283.3444 15.08839907247201

JSON: /api/v1/satellites/49768 · /tle

For live sub-satellite position, see the globe view (requires WebGL).

§ Visibility from observer

Set your observer location to see the next 7 days of passes ≥ 10°. The values pass through the URL so the page stays shareable.

No JS? Fill the form by hand. The geolocation button needs JavaScript.